Flag for Germany Weather past 2 weeks in Kassel, Hesse, Germany

Now
59 °F

Sunny.


Feels Like: 57 °F
Forecast: 49 / 60 °F
Wind: 12 mph from Southwest

Location: Kassel / Calden

Current Time: Sep 4, 2015 at 5:39:09 PM

Latest Report: Sep 4, 2015 at 4:50 PM


Visibility: 10 mi

Pressure: 29.92 "Hg

Humidity: 63%

Dew point: 46 °F

Location of KasselLocation

Historic Weather in Kassel — Graph

°F

Kassel temperature yesterday

Maximum temperature yesterday: 64 °F (at 3:50 PM)
Minimum temperature yesterday: 50 °F (at 7:20 AM)
Average temperature yesterday: 58 °F

Past Weeks' High & Low Weather Summary

 TemperatureHumidityPressure
High90 °F (Aug 31, 4:20 PM)100% (Aug 21, 5:50 AM)30.30 "Hg (Aug 21, 5:50 AM)
Low50 °F (Aug 22, 5:50 AM)30% (Aug 22, 3:20 PM)29.65 "Hg (Aug 24, 4:50 PM)
Average66 °F69%29.99 "Hg
* Reported Aug 20 4:20 PM — Sep 4 4:20 PM, Kassel, Weather by CustomWeather, © 2015

Note: Actual official high and low records may vary slightly from our data, if they occured in-between our weather recording intervals... More about our weather records

Advertising

Kassel weather history for previous 24 hours

 ConditionsComfort  
Time TempWeatherWind HumidityBarometerVisibility
4:20 PM
Fri, Sep 4
59 °FPartly sunny.12 mph63%29.95 "HgN/A
3:50 PM59 °FPartly sunny.13 mph59%29.95 "HgN/A
3:20 PM59 °FPartly sunny.13 mph59%29.95 "HgN/A
2:50 PM59 °FPartly sunny.13 mph59%29.95 "HgN/A
2:20 PM59 °FBroken clouds.12 mph55%29.95 "HgN/A
1:50 PM59 °FPartly sunny.14 mph59%29.95 "HgN/A
1:20 PM61 °FBroken clouds.13 mph52%29.95 "HgN/A
12:50 PM59 °FPartly sunny.14 mph59%29.95 "HgN/A
12:20 PM59 °FPartly sunny.13 mph59%29.95 "HgN/A
11:50 AM61 °FScattered clouds.12 mph59%29.98 "HgN/A
11:20 AM57 °FScattered clouds.10 mph67%29.98 "HgN/A
10:50 AM57 °FScattered clouds.10 mph67%29.98 "HgN/A
10:20 AM57 °FScattered clouds.9 mph72%29.98 "HgN/A
9:50 AM55 °FPassing clouds.9 mph77%29.98 "HgN/A
9:20 AM54 °FSunny.9 mph82%29.95 "Hg10 mi
8:50 AM52 °FScattered clouds.10 mph82%29.95 "HgN/A
8:20 AM52 °FPassing clouds.5 mph88%29.95 "HgN/A
7:50 AM50 °FPassing clouds.3 mph94%29.95 "HgN/A
7:20 AM50 °FPassing clouds.6 mph94%29.95 "HgN/A
6:50 AM50 °FClear.9 mph100%29.95 "Hg10 mi
6:20 AM50 °FClear.7 mph100%29.95 "Hg10 mi
9:50 PM
Thu, Sep 3
54 °FClear.3 mph94%29.95 "Hg10 mi
9:20 PM55 °FClear.2 mph94%29.95 "Hg10 mi
8:50 PM59 °FScattered clouds.1 mph77%29.95 "HgN/A
8:20 PM59 °FScattered clouds.1 mph72%29.95 "HgN/A
7:50 PM59 °FScattered clouds.2 mph72%29.92 "HgN/A
7:20 PM61 °FSunny.2 mph68%29.92 "Hg10 mi
6:50 PM63 °FPassing clouds.5 mph64%29.92 "HgN/A
6:20 PM63 °FSunny.5 mph64%29.92 "Hg10 mi
5:50 PM61 °FSunny.8 mph68%29.92 "Hg10 mi
5:20 PM63 °FSunny.7 mph64%29.92 "Hg10 mi
Weather by CustomWeather, © 2015

See weather overviewHow to use our weather pages